FW3260 Weather Reports


Display with metric or nautical units.
time (UTC)temp
F
wind
direction
speed
MPH
gust
MPH
rain 1hr
in
rain 24hr
in
rain mn
in
humidity
%
barometer
mb
20260905001518 73 180 1.0 5.0 0.00 0.01 0.01 65 1010.7
20260905000517 73 90 1.0 4.0 0.00 0.01 0.01 66 1010.7
20260904235518 73 293 1.0 3.0 0.00 0.01 0.01 66 1010.5
20260904234518 73 90 1.0 3.0 0.00 0.01 0.01 67 1010.4
20260904233518 73 0.0 3.0 0.00 0.01 0.01 67 1010.4
20260904232538 73 0.0 3.0 0.00 0.01 0.01 68 1010.2
20260904231518 74 0.0 2.0 0.00 0.01 0.01 68 1010.1
20260904230518 74 0.0 2.0 0.00 0.01 0.01 68 1010.1
20260904225517 74 0.0 0.0 0.00 0.01 0.01 68 1010.1
20260904224517 75 0.0 1.0 0.00 0.01 0.01 67 1010.1
20260904223517 75 0.0 1.0 0.00 0.01 0.01 67 1010.1
20260904222519 76 0.0 0.0 0.00 0.01 0.01 66 1009.9
20260904221519 77 0.0 3.0 0.00 0.01 0.01 63 1009.9
20260904220519 77 0.0 2.0 0.00 0.01 0.01 64 1009.8
20260904215517 78 0.0 3.0 0.00 0.01 0.01 61 1009.9
20260904214519 79 0.0 1.0 0.00 0.01 0.01 60 1009.9
20260904213517 80 225 2.0 5.0 0.00 0.01 0.01 58 1009.9
20260904212519 79 338 1.0 4.0 0.00 0.01 0.01 60 1009.9
20260904211519 78 0.0 1.0 0.00 0.01 0.01 62 1009.9
20260904210520 78 0.0 0.0 0.00 0.01 0.01 63 1009.8
20260904205519 79 315 1.0 2.0 0.00 0.01 0.01 60 1009.7
20260904204519 79 270 1.0 3.0 0.00 0.01 0.01 60 1009.6
20260904203519 80 0.0 2.0 0.00 0.01 0.01 58 1009.8
20260904202521 81 0 1.0 6.0 0.00 0.01 0.01 55 1009.9
20260904201519 79 225 2.0 3.0 0.00 0.01 0.01 58 1009.9
20260904200519 79 248 1.0 5.0 0.00 0.01 0.01 57 1009.8
20260904195519 80 315 1.0 5.0 0.00 0.01 0.01 57 1009.9
20260904194520 81 293 1.0 5.0 0.00 0.01 0.01 54 1009.9
20260904193539 82 270 2.0 7.0 0.00 0.01 0.01 56 1009.7
20260904192539 82 293 2.0 4.0 0.00 0.01 0.01 55 1009.7
20260904191519 82 225 2.0 4.0 0.00 0.01 0.01 52 1009.6
20260904190519 83 90 1.0 7.0 0.00 0.01 0.01 52 1009.9
20260904185519 83 270 2.0 6.0 0.00 0.01 0.01 58 1010.1
20260904184519 83 293 2.0 6.0 0.00 0.01 0.01 55 1010.2
20260904183519 81 248 2.0 4.0 0.00 0.01 0.01 56 1010.0
20260904182519 83 270 1.0 4.0 0.00 0.01 0.01 53 1010.1
20260904181519 82 90 1.0 3.0 0.00 0.01 0.01 54 1010.0
20260904180519 82 315 2.0 5.0 0.00 0.01 0.01 54 1010.1
20260904175519 81 68 1.0 4.0 0.00 0.01 0.01 58 1010.2
20260904174519 81 113 2.0 4.0 0.00 0.01 0.01 54 1010.1
20260904173519 82 225 2.0 7.0 0.00 0.01 0.01 57 1010.1
20260904172519 82 203 3.0 8.0 0.00 0.01 0.01 59 1010.1
20260904171519 82 248 2.0 4.0 0.00 0.01 0.01 62 1010.1
20260904170519 81 315 2.0 6.0 0.00 0.01 0.01 63 1010.3
20260904165519 80 293 1.0 5.0 0.00 0.01 0.01 65 1010.4
20260904164520 80 225 2.0 5.0 0.00 0.01 0.01 62 1010.4
20260904163519 82 0 1.0 11.0 0.00 0.01 0.01 60 1010.6
20260904162518 81 338 2.0 6.0 0.00 0.01 0.01 64 1010.5
20260904161519 79 203 1.0 4.0 0.00 0.01 0.01 64 1010.6
20260904160519 81 113 1.0 4.0 0.00 0.01 0.01 61 1010.7
20260904155519 80 315 1.0 5.0 0.00 0.01 0.01 63 1010.8
20260904154519 80 90 2.0 4.0 0.00 0.01 0.01 63 1011.0
20260904153519 81 338 2.0 4.0 0.00 0.01 0.01 65 1010.9
20260904152519 80 180 2.0 6.0 0.00 0.01 0.01 65 1011.0
20260904151519 80 270 1.0 6.0 0.00 0.01 0.01 66 1011.1
20260904150519 79 270 1.0 3.0 0.00 0.01 0.01 68 1011.0
20260904145518 78 293 2.0 6.0 0.00 0.01 0.01 69 1011.1
20260904144518 78 203 2.0 5.0 0.00 0.01 0.01 69 1011.1
20260904143518 78 113 1.0 4.0 0.00 0.01 0.01 71 1011.2
20260904142519 78 338 1.0 3.0 0.00 0.01 0.01 73 1011.2
20260904141518 78 248 1.0 2.0 0.00 0.01 0.01 73 1011.3
20260904140539 76 293 2.0 4.0 0.00 0.01 0.01 75 1011.4
20260904135519 76 270 2.0 5.0 0.00 0.01 0.01 75 1011.4
20260904134518 75 315 1.0 5.0 0.00 0.01 0.01 77 1011.3
20260904133518 74 338 1.0 4.0 0.00 0.01 0.01 79 1011.3
20260904132539 74 315 1.0 3.0 0.00 0.01 0.01 82 1011.4
20260904131518 73 315 1.0 2.0 0.00 0.01 0.01 86 1011.4
20260904130518 72 0.0 3.0 0.00 0.01 0.01 91 1011.4
20260904125519 70 0.0 0.0 0.00 0.01 0.01 95 1011.5
20260904124518 69 0.0 0.0 0.00 0.01 0.01 97 1011.4
20260904123518 69 0.0 0.0 0.01 0.01 0.01 97 1011.4
20260904122518 68 0.0 0.0 0.01 0.01 0.01 97 1011.3
20260904121518 68 0.0 0.0 0.01 0.01 0.01 97 1011.4
20260904120539 67 0.0 0.0 0.01 0.01 0.01 97 1011.3
20260904115518 66 0.0 0.0 0.01 0.01 0.01 97 1011.2
20260904114538 66 0.0 0.0 0.01 0.01 0.01 97 1011.2
20260904113538 64 0.0 0.0 0.00 0.00 0.00 97 1011.1
20260904112518 64 0.0 0.0 0.00 0.00 0.00 96 1011.1
20260904111538 63 0.0 0.0 0.00 0.00 0.00 96 1011.0
20260904110518 63 0.0 0.0 0.00 0.00 0.00 96 1011.0
20260904105538 63 0.0 0.0 0.00 0.04 0.00 96 1011.0
20260904104518 63 0.0 0.0 0.00 0.04 0.00 96 1011.1
20260904103518 63 0.0 0.0 0.00 0.04 0.00 96 1011.0
20260904102518 63 0.0 0.0 0.00 0.04 0.00 96 1010.9
20260904101518 63 0.0 0.0 0.00 0.04 0.00 96 1011.0
20260904100519 63 0.0 0.0 0.00 0.04 0.00 96 1011.0
20260904095518 63 0.0 0.0 0.00 0.24 0.00 96 1011.0
20260904094518 63 0.0 0.0 0.00 0.24 0.00 96 1011.0
20260904093539 63 0.0 0.0 0.00 0.24 0.00 96 1011.0
20260904092518 64 0.0 0.0 0.00 0.24 0.00 96 1010.9
20260904091518 64 0.0 0.0 0.00 0.24 0.00 96 1011.0
20260904090518 64 0.0 0.0 0.00 0.24 0.00 96 1010.8
20260904085518 64 0.0 0.0 0.00 0.27 0.00 96 1010.7
20260904084518 64 0.0 0.0 0.00 0.27 0.00 96 1010.6
20260904083518 64 0.0 0.0 0.00 0.27 0.00 96 1010.7
20260904082518 64 0.0 0.0 0.00 0.27 0.00 95 1010.8
20260904081538 64 0.0 0.0 0.00 0.27 0.00 95 1010.9
20260904080518 64 0.0 0.0 0.00 0.27 0.00 95 1010.9
20260904075558 64 0.0 0.0 0.00 0.28 0.00 95 1011.1
20260904074518 65 0.0 0.0 0.00 0.28 0.00 95 1011.2
20260904073518 65 0.0 0.0 0.00 0.28 0.00 95 1011.1
20260904072518 65 0.0 0.0 0.00 0.28 0.00 95 1011.2
20260904071518 65 0.0 0.0 0.00 0.28 0.00 95 1011.3
20260904070518 66 0.0 0.0 0.00 0.28 0.00 95 1011.4
20260904065538 66 0.0 0.0 0.00 0.28 0.00 95 1011.2
20260904064538 66 0.0 0.0 0.00 0.28 0.00 95 1011.5
20260904063518 66 0.0 0.0 0.00 0.28 0.00 95 1011.3
20260904062518 66 0.0 0.0 0.00 0.28 0.00 95 1011.4
20260904061518 66 0.0 0.0 0.00 0.28 0.00 95 1011.6
20260904060517 67 0.0 0.0 0.00 0.28 0.00 95 1011.5
20260904055538 67 0.0 0.0 0.00 0.28 0.00 95 1011.8
20260904054518 67 0.0 0.0 0.00 0.28 0.00 95 1012.0
20260904053517 67 0.0 0.0 0.00 0.28 0.00 95 1012.3
20260904052517 67 0.0 0.0 0.00 0.28 0.00 95 1012.3
20260904051518 67 0.0 0.0 0.00 0.28 0.00 95 1012.3
20260904050520 67 0.0 0.0 0.00 0.28 0.00 94 1012.2
20260904045519 67 0.0 0.0 0.00 0.28 0.00 95 1012.2
20260904044519 68 0.0 0.0 0.00 0.28 0.00 94 1012.4
20260904043519 68 0.0 0.0 0.00 0.28 0.00 94 1012.4
20260904042519 68 0.0 0.0 0.00 0.28 0.00 94 1012.4
20260904041540 68 0.0 0.0 0.00 0.28 0.00 94 1012.5
20260904040519 68 0.0 0.0 0.00 0.28 0.00 94 1012.5
20260904035518 69 0.0 0.0 0.00 0.28 0.28 94 1012.5
20260904034518 69 0.0 0.0 0.00 0.28 0.28 94 1012.6
20260904033518 69 0.0 0.0 0.00 0.28 0.28 94 1012.7
20260904032518 69 0.0 0.0 0.00 0.28 0.28 94 1012.7
20260904031518 70 0.0 0.0 0.00 0.28 0.28 94 1012.8
20260904030518 70 0.0 0.0 0.00 0.28 0.28 94 1012.8
20260904025518 70 0.0 0.0 0.00 0.28 0.28 94 1012.7
20260904024518 70 0.0 0.0 0.00 0.28 0.28 94 1012.8
20260904023518 70 0.0 0.0 0.00 0.28 0.28 94 1012.8
20260904022518 70 0.0 0.0 0.00 0.28 0.28 93 1012.9
20260904021518 70 0.0 0.0 0.00 0.28 0.28 93 1013.1
20260904020518 70 0.0 0.0 0.00 0.28 0.28 93 1013.1
20260904015518 71 0.0 0.0 0.00 0.28 0.28 93 1013.2
20260904014518 71 0.0 0.0 0.00 0.28 0.28 93 1013.4
20260904013517 71 0.0 0.0 0.00 0.28 0.28 92 1013.3
20260904012537 71 0.0 0.0 0.00 0.28 0.28 92 1013.3
20260904011518 71 0.0 0.0 0.00 0.28 0.28 92 1013.4
20260904010518 71 0.0 0.0 0.00 0.28 0.28 91 1013.2
20260904005518 71 0.0 0.0 0.00 0.28 0.28 90 1013.2
20260904004518 71 0.0 0.0 0.00 0.28 0.28 89 1013.1
20260904003519 71 0.0 0.0 0.00 0.28 0.28 89 1013.2
20260904002519 72 0.0 0.0 0.00 0.28 0.28 88 1013.0